Time,TemperatureF,DewpointF,PressureIn,WindDirection,WindDirectionDegrees,WindSpeedMPH,WindSpeedGustMPH,Humidity,HourlyPrecipIn,Conditions,Clouds,dailyrainin,SoftwareType,DateUTC
2013-07-19 00:01:00,73.3,72.7,30.09,NE,37,0.0,0.0,98,0.00,RA,,0.00,WeatherDisplay:10.37,2013-07-19 04:01:00,
2013-07-19 00:06:00,73.5,72.9,30.09,NE,37,0.0,0.0,98,0.00,RA,,0.00,WeatherDisplay:10.37,2013-07-19 04:06:00,
2013-07-19 00:11:00,73.4,72.8,30.09,NE,37,0.0,0.0,98,0.00,CLR,,0.00,WeatherDisplay:10.37,2013-07-19 04:11:00,
2013-07-19 00:17:00,73.5,72.9,30.09,NE,37,0.0,0.0,98,0.00,CLR,,0.00,WeatherDisplay:10.37,2013-07-19 04:17:00,
2013-07-19 00:22:00,73.5,72.9,30.09,NE,37,0.0,0.0,98,0.00,CLR,,0.00,WeatherDisplay:10.37,2013-07-19 04:22:00,
2013-07-19 00:27:00,73.5,72.9,30.08,NE,37,0.0,0.0,98,0.00,CLR,,0.00,WeatherDisplay:10.37,2013-07-19 04:27:00,
2013-07-19 00:32:00,73.5,72.9,30.09,NE,37,0.0,0.0,98,0.00,CLR,,0.00,WeatherDisplay:10.37,2013-07-19 04:32:00,
2013-07-19 00:37:00,73.3,72.7,30.09,NE,37,0.0,0.0,98,0.00,CLR,,0.00,WeatherDisplay:10.37,2013-07-19 04:37:00,
2013-07-19 00:42:00,73.1,72.5,30.09,NE,37,0.0,0.0,98,0.00,CLR,,0.00,WeatherDisplay:10.37,2013-07-19 04:42:00,
2013-07-19 00:47:00,73.0,72.4,30.09,NE,37,0.0,0.0,98,0.00,CLR,,0.00,WeatherDisplay:10.37,2013-07-19 04:47:00,
2013-07-19 00:52:00,73.0,72.4,30.09,NE,37,0.0,0.0,98,0.00,CLR,,0.00,WeatherDisplay:10.37,2013-07-19 04:52:00,
2013-07-19 00:57:00,73.0,72.4,30.09,NE,37,0.0,0.0,98,0.00,CLR,,0.00,WeatherDisplay:10.37,2013-07-19 04:57:00,
2013-07-19 01:02:00,73.0,72.4,30.09,NE,37,0.0,0.0,98,0.00,CLR,,0.00,WeatherDisplay:10.37,2013-07-19 05:02:00,
2013-07-19 01:07:00,73.0,72.4,30.09,NE,37,0.0,0.0,98,0.00,CLR,,0.00,WeatherDisplay:10.37,2013-07-19 05:07:00,
2013-07-19 01:12:00,73.0,72.4,30.09,NE,37,0.0,0.0,98,0.00,CLR,,0.00,WeatherDisplay:10.37,2013-07-19 05:12:00,
2013-07-19 01:17:00,73.0,72.4,30.09,NE,37,0.0,0.0,98,0.00,CLR,,0.00,WeatherDisplay:10.37,2013-07-19 05:17:00,
2013-07-19 01:22:00,73.4,72.8,30.09,NE,37,0.0,0.0,98,0.00,CLR,,0.00,WeatherDisplay:10.37,2013-07-19 05:22:00,
2013-07-19 01:27:00,73.6,73.0,30.09,NE,37,0.0,0.0,98,0.00,CLR,,0.00,WeatherDisplay:10.37,2013-07-19 05:27:00,
2013-07-19 01:32:00,73.7,73.1,30.09,NE,37,0.0,0.0,98,0.00,CLR,,0.00,WeatherDisplay:10.37,2013-07-19 05:32:00,
2013-07-19 01:37:00,73.7,73.1,30.09,NE,37,0.0,0.0,98,0.00,CLR,,0.00,WeatherDisplay:10.37,2013-07-19 05:37:00,
2013-07-19 01:42:00,73.8,73.2,30.08,NE,37,0.0,0.0,98,0.00,CLR,,0.00,WeatherDisplay:10.37,2013-07-19 05:42:00,
2013-07-19 01:47:00,73.9,73.3,30.08,NE,37,0.0,0.0,98,0.00,CLR,,0.00,WeatherDisplay:10.37,2013-07-19 05:47:00,
2013-07-19 01:52:00,74.0,73.4,30.08,NE,37,0.0,0.0,98,0.00,CLR,,0.00,WeatherDisplay:10.37,2013-07-19 05:52:00,
2013-07-19 01:57:00,74.0,73.4,30.08,NE,37,0.0,0.0,98,0.00,CLR,,0.00,WeatherDisplay:10.37,2013-07-19 05:57:00,
2013-07-19 02:02:00,74.0,73.4,30.08,NE,37,0.0,0.0,98,0.00,CLR,,0.00,WeatherDisplay:10.37,2013-07-19 06:02:00,
2013-07-19 02:07:00,74.1,73.5,30.08,NE,37,0.0,0.0,98,0.00,CLR,,0.00,WeatherDisplay:10.37,2013-07-19 06:07:00,
2013-07-19 02:12:00,74.0,73.4,30.08,NE,37,0.0,0.0,98,0.00,CLR,,0.00,WeatherDisplay:10.37,2013-07-19 06:12:00,
2013-07-19 02:17:00,74.0,73.4,30.08,NE,37,0.0,0.0,98,0.00,CLR,,0.00,WeatherDisplay:10.37,2013-07-19 06:17:00,
2013-07-19 02:22:00,73.9,73.3,30.08,NE,37,0.0,0.0,98,0.00,CLR,,0.00,WeatherDisplay:10.37,2013-07-19 06:22:00,
2013-07-19 02:27:00,73.7,73.1,30.08,NE,37,0.0,0.0,98,0.00,CLR,,0.00,WeatherDisplay:10.37,2013-07-19 06:27:00,
2013-07-19 02:32:00,73.7,73.1,30.08,NE,37,0.1,1.2,98,0.00,CLR,,0.00,WeatherDisplay:10.37,2013-07-19 06:32:00,
2013-07-19 02:37:00,73.8,73.2,30.08,NE,37,0.2,1.2,98,0.00,CLR,,0.00,WeatherDisplay:10.37,2013-07-19 06:37:00,
2013-07-19 02:42:00,73.7,73.1,30.08,NE,37,0.0,0.0,98,0.00,CLR,,0.00,WeatherDisplay:10.37,2013-07-19 06:42:00,
2013-07-19 02:47:00,73.7,73.1,30.08,NE,37,0.0,0.0,98,0.00,CLR,,0.00,WeatherDisplay:10.37,2013-07-19 06:47:00,
2013-07-19 02:52:00,73.7,73.1,30.08,NE,37,0.4,2.3,98,0.00,CLR,,0.00,WeatherDisplay:10.37,2013-07-19 06:52:00,
2013-07-19 02:57:00,74.0,73.4,30.08,NE,37,0.0,0.0,98,0.00,CLR,,0.00,WeatherDisplay:10.37,2013-07-19 06:57:00,
2013-07-19 03:02:00,74.0,73.4,30.08,NE,37,0.0,0.0,98,0.00,CLR,,0.00,WeatherDisplay:10.37,2013-07-19 07:02:00,
2013-07-19 03:07:00,73.9,73.3,30.08,NE,37,0.0,0.0,98,0.00,CLR,,0.00,WeatherDisplay:10.37,2013-07-19 07:07:00,
2013-07-19 03:12:00,74.2,73.6,30.08,NE,37,0.0,0.0,98,0.00,CLR,,0.00,WeatherDisplay:10.37,2013-07-19 07:12:00,
2013-07-19 03:17:00,74.2,73.6,30.08,NE,37,0.0,0.0,98,0.00,CLR,,0.00,WeatherDisplay:10.37,2013-07-19 07:17:00,
2013-07-19 03:22:00,74.3,73.7,30.08,NE,37,0.0,0.0,98,0.00,CLR,,0.00,WeatherDisplay:10.37,2013-07-19 07:22:00,
2013-07-19 03:27:00,74.2,73.6,30.08,NE,37,0.0,0.0,98,0.00,CLR,,0.00,WeatherDisplay:10.37,2013-07-19 07:27:00,
2013-07-19 03:32:00,74.2,73.6,30.08,NE,37,0.0,0.0,98,0.00,CLR,,0.00,WeatherDisplay:10.37,2013-07-19 07:32:00,
2013-07-19 03:37:00,74.0,73.4,30.08,NE,37,0.0,0.0,98,0.00,CLR,,0.00,WeatherDisplay:10.37,2013-07-19 07:37:00,
2013-07-19 03:42:00,73.9,73.3,30.08,NE,37,0.0,0.0,98,0.00,CLR,,0.00,WeatherDisplay:10.37,2013-07-19 07:42:00,
2013-07-19 03:47:00,73.8,73.2,30.08,NE,37,0.0,0.0,98,0.00,CLR,,0.00,WeatherDisplay:10.37,2013-07-19 07:47:00,
2013-07-19 03:52:00,73.8,73.2,30.08,NE,37,0.0,0.0,98,0.00,CLR,,0.00,WeatherDisplay:10.37,2013-07-19 07:52:00,
2013-07-19 03:57:00,73.9,73.3,30.08,NE,37,0.5,1.2,98,0.00,CLR,,0.00,WeatherDisplay:10.37,2013-07-19 07:57:00,
2013-07-19 04:02:00,73.9,73.3,30.08,NE,37,0.0,0.0,98,0.00,CLR,,0.00,WeatherDisplay:10.37,2013-07-19 08:02:00,
2013-07-19 04:07:00,73.9,73.3,30.08,NE,37,0.1,1.2,98,0.00,CLR,,0.00,WeatherDisplay:10.37,2013-07-19 08:07:00,
2013-07-19 04:12:00,74.1,73.5,30.08,NE,37,0.0,0.0,98,0.00,CLR,,0.00,WeatherDisplay:10.37,2013-07-19 08:12:00,
2013-07-19 04:17:00,74.2,73.6,30.08,NE,37,0.0,0.0,98,0.00,CLR,,0.00,WeatherDisplay:10.37,2013-07-19 08:17:00,
2013-07-19 04:22:00,74.3,73.7,30.08,NE,37,0.0,0.0,98,0.00,CLR,,0.00,WeatherDisplay:10.37,2013-07-19 08:22:00,
2013-07-19 04:27:00,74.2,73.6,30.08,NE,37,0.0,0.0,98,0.00,CLR,,0.00,WeatherDisplay:10.37,2013-07-19 08:27:00,
2013-07-19 04:32:00,74.0,73.4,30.08,NE,37,0.0,1.2,98,0.00,CLR,,0.00,WeatherDisplay:10.37,2013-07-19 08:32:00,
2013-07-19 04:37:00,74.0,73.4,30.08,NE,37,0.1,0.0,98,0.00,CLR,,0.00,WeatherDisplay:10.37,2013-07-19 08:37:00,
2013-07-19 04:42:00,73.9,73.3,30.08,NE,37,0.0,0.0,98,0.00,CLR,,0.00,WeatherDisplay:10.37,2013-07-19 08:42:00,
2013-07-19 04:47:00,73.9,73.3,30.07,NE,37,0.0,0.0,98,0.00,CLR,,0.00,WeatherDisplay:10.37,2013-07-19 08:47:00,
2013-07-19 04:52:00,73.9,73.3,30.08,NE,37,0.0,0.0,98,0.00,CLR,,0.00,WeatherDisplay:10.37,2013-07-19 08:52:00,
2013-07-19 04:57:00,73.8,73.2,30.08,NE,37,0.0,0.0,98,0.00,CLR,,0.00,WeatherDisplay:10.37,2013-07-19 08:57:00,
2013-07-19 05:02:00,73.7,73.1,30.08,NE,37,0.0,0.0,98,0.00,CLR,,0.00,WeatherDisplay:10.37,2013-07-19 09:02:00,
2013-07-19 05:07:00,73.6,73.0,30.07,NE,37,0.0,0.0,98,0.00,CLR,,0.00,WeatherDisplay:10.37,2013-07-19 09:07:00,
2013-07-19 05:12:00,73.6,73.0,30.07,NE,37,0.0,0.0,98,0.00,CLR,,0.00,WeatherDisplay:10.37,2013-07-19 09:12:00,
2013-07-19 05:17:00,73.6,73.0,30.07,NE,37,0.0,0.0,98,0.00,CLR,,0.00,WeatherDisplay:10.37,2013-07-19 09:17:00,
2013-07-19 05:22:00,73.6,73.0,30.07,NE,37,0.0,0.0,98,0.00,CLR,,0.00,WeatherDisplay:10.37,2013-07-19 09:22:00,
2013-07-19 05:27:00,73.6,73.0,30.08,NE,37,0.0,0.0,98,0.00,CLR,,0.00,WeatherDisplay:10.37,2013-07-19 09:27:00,
2013-07-19 05:33:00,73.5,72.9,30.07,NE,37,0.0,0.0,98,0.00,CLR,,0.00,WeatherDisplay:10.37,2013-07-19 09:33:00,
2013-07-19 05:38:00,73.6,73.0,30.08,NE,37,0.2,1.2,98,0.00,CLR,,0.00,WeatherDisplay:10.37,2013-07-19 09:38:00,
2013-07-19 05:43:00,73.6,73.0,30.08,NE,37,0.0,0.0,98,0.00,CLR,,0.00,WeatherDisplay:10.37,2013-07-19 09:43:00,
2013-07-19 05:48:00,73.7,73.1,30.08,NE,37,0.2,0.0,98,0.00,CLR,,0.00,WeatherDisplay:10.37,2013-07-19 09:48:00,
2013-07-19 05:53:00,73.7,73.1,30.08,NE,37,0.1,1.2,98,0.00,CLR,,0.00,WeatherDisplay:10.37,2013-07-19 09:53:00,
2013-07-19 05:58:00,73.7,73.1,30.08,NE,37,0.0,1.2,98,0.00,CLR,,0.00,WeatherDisplay:10.37,2013-07-19 09:58:00,
2013-07-19 06:03:00,74.0,73.4,30.07,NE,37,0.0,0.0,98,0.00,CLR,,0.00,WeatherDisplay:10.37,2013-07-19 10:03:00,
2013-07-19 06:08:00,74.2,73.6,30.07,NE,37,1.2,1.2,98,0.00,CLR,,0.00,WeatherDisplay:10.37,2013-07-19 10:08:00,
2013-07-19 06:13:00,74.2,73.6,30.07,NE,37,0.2,1.2,98,0.00,CLR,,0.00,WeatherDisplay:10.37,2013-07-19 10:13:00,
2013-07-19 06:18:00,74.2,73.6,30.07,NE,37,0.0,2.3,98,0.00,CLR,,0.00,WeatherDisplay:10.37,2013-07-19 10:18:00,
2013-07-19 06:23:00,74.3,73.7,30.07,NE,37,0.0,1.2,98,0.00,CLR,,0.00,WeatherDisplay:10.37,2013-07-19 10:23:00,
2013-07-19 06:28:00,74.2,73.6,30.08,NE,37,0.0,1.2,98,0.00,CLR,,0.00,WeatherDisplay:10.37,2013-07-19 10:28:00,
2013-07-19 06:33:00,74.3,73.7,30.08,NE,37,0.0,0.0,98,0.00,CLR,,0.00,WeatherDisplay:10.37,2013-07-19 10:33:00,
2013-07-19 06:38:00,74.2,73.6,30.08,NE,37,0.0,0.0,98,0.00,CLR,,0.00,WeatherDisplay:10.37,2013-07-19 10:38:00,
2013-07-19 06:43:00,74.1,73.5,30.08,NE,37,0.0,0.0,98,0.00,CLR,,0.00,WeatherDisplay:10.37,2013-07-19 10:43:00,
2013-07-19 06:48:00,74.2,73.6,30.08,NE,37,0.0,0.0,98,0.00,CLR,,0.00,WeatherDisplay:10.37,2013-07-19 10:48:00,
2013-07-19 06:53:00,74.2,73.6,30.08,NE,37,0.5,1.2,98,0.00,CLR,,0.00,WeatherDisplay:10.37,2013-07-19 10:53:00,
2013-07-19 06:58:00,74.1,73.5,30.08,NE,37,0.0,0.0,98,0.00,CLR,,0.00,WeatherDisplay:10.37,2013-07-19 10:58:00,
2013-07-19 07:03:00,74.2,73.6,30.08,NE,37,0.0,0.0,98,0.00,CLR,,0.00,WeatherDisplay:10.37,2013-07-19 11:03:00,
2013-07-19 07:08:00,74.3,73.7,30.09,NE,37,0.0,0.0,98,0.00,CLR,,0.00,WeatherDisplay:10.37,2013-07-19 11:08:00,
2013-07-19 07:13:00,74.3,73.7,30.09,NE,37,0.0,0.0,98,0.00,CLR,,0.00,WeatherDisplay:10.37,2013-07-19 11:13:00,
2013-07-19 07:18:00,74.4,73.8,30.09,NE,37,0.5,1.2,98,0.00,CLR,,0.00,WeatherDisplay:10.37,2013-07-19 11:18:00,
2013-07-19 07:23:00,74.5,73.9,30.09,NE,37,0.7,1.2,98,0.00,CLR,,0.00,WeatherDisplay:10.37,2013-07-19 11:23:00,
2013-07-19 07:28:00,74.6,74.0,30.09,NE,37,0.0,0.0,98,0.00,CLR,,0.00,WeatherDisplay:10.37,2013-07-19 11:28:00,
2013-07-19 07:33:00,74.7,74.1,30.09,NE,37,0.1,1.2,98,0.00,CLR,,0.00,WeatherDisplay:10.37,2013-07-19 11:33:00,
2013-07-19 07:38:00,74.8,74.2,30.09,NE,37,0.5,0.0,98,0.00,CLR,,0.00,WeatherDisplay:10.37,2013-07-19 11:38:00,
2013-07-19 07:43:00,75.0,74.7,30.09,NE,37,0.0,0.0,99,0.00,CLR,,0.00,WeatherDisplay:10.37,2013-07-19 11:43:00,
2013-07-19 07:48:00,75.2,74.9,30.09,NE,37,0.0,1.2,99,0.00,CLR,,0.00,WeatherDisplay:10.37,2013-07-19 11:48:00,
2013-07-19 07:53:00,75.5,74.9,30.09,NE,37,0.0,0.0,98,0.00,CLR,,0.00,WeatherDisplay:10.37,2013-07-19 11:53:00,
2013-07-19 07:58:00,75.9,75.6,30.10,NE,37,0.0,0.0,99,0.00,CLR,,0.00,WeatherDisplay:10.37,2013-07-19 11:58:00,
2013-07-19 08:03:00,76.0,75.4,30.10,NE,37,0.0,0.0,98,0.00,CLR,,0.00,WeatherDisplay:10.37,2013-07-19 12:03:00,
2013-07-19 08:08:00,76.1,75.5,30.10,NE,37,0.0,0.0,98,0.01,RA,,0.01,WeatherDisplay:10.37,2013-07-19 12:08:00,
2013-07-19 08:13:00,76.3,75.7,30.10,NE,37,0.0,0.0,98,0.01,RA,,0.01,WeatherDisplay:10.37,2013-07-19 12:13:00,
2013-07-19 08:18:00,76.6,76.0,30.10,NE,37,0.0,0.0,98,0.01,CLR,,0.01,WeatherDisplay:10.37,2013-07-19 12:18:00,
2013-07-19 08:23:00,76.7,76.1,30.10,NE,37,0.0,0.0,98,0.01,CLR,,0.01,WeatherDisplay:10.37,2013-07-19 12:23:00,
2013-07-19 08:28:00,76.8,76.2,30.10,NE,37,0.0,0.0,98,0.01,CLR,,0.01,WeatherDisplay:10.37,2013-07-19 12:28:00,
2013-07-19 08:33:00,76.9,76.3,30.10,NE,37,0.0,0.0,98,0.01,CLR,,0.01,WeatherDisplay:10.37,2013-07-19 12:33:00,
2013-07-19 08:38:00,77.1,76.5,30.10,NE,37,0.0,0.0,98,0.01,CLR,,0.01,WeatherDisplay:10.37,2013-07-19 12:38:00,
2013-07-19 08:43:00,77.4,76.8,30.10,NE,37,0.0,0.0,98,0.01,CLR,,0.01,WeatherDisplay:10.37,2013-07-19 12:43:00,
2013-07-19 08:48:00,77.6,77.0,30.10,NE,37,0.0,0.0,98,0.01,CLR,,0.01,WeatherDisplay:10.37,2013-07-19 12:48:00,
2013-07-19 08:53:00,77.8,77.2,30.10,NE,37,0.0,0.0,98,0.01,CLR,,0.01,WeatherDisplay:10.37,2013-07-19 12:53:00,
2013-07-19 08:58:00,78.2,77.6,30.10,NE,37,0.0,0.0,98,0.01,CLR,,0.01,WeatherDisplay:10.37,2013-07-19 12:58:00,
2013-07-19 09:03:00,78.4,77.5,30.10,NE,37,0.0,0.0,97,0.01,CLR,,0.01,WeatherDisplay:10.37,2013-07-19 13:03:00,
2013-07-19 09:08:00,78.7,77.8,30.10,NE,37,0.0,0.0,97,0.00,CLR,,0.01,WeatherDisplay:10.37,2013-07-19 13:08:00,
2013-07-19 09:13:00,78.9,78.0,30.10,NE,37,0.5,1.2,97,0.00,CLR,,0.01,WeatherDisplay:10.37,2013-07-19 13:13:00,
2013-07-19 09:18:00,79.3,78.1,30.10,NE,37,1.9,3.5,96,0.00,CLR,,0.01,WeatherDisplay:10.37,2013-07-19 13:18:00,
2013-07-19 09:23:00,79.7,78.1,30.10,NE,37,0.9,3.5,95,0.00,CLR,,0.01,WeatherDisplay:10.37,2013-07-19 13:23:00,
2013-07-19 09:26:00,79.7,78.1,30.10,NE,37,1.0,2.3,95,0.00,CLR,,0.01,WeatherDisplay:10.37,2013-07-19 13:26:00,
2013-07-19 09:31:00,80.2,78.3,30.10,NE,37,0.9,2.3,94,0.00,CLR,,0.01,WeatherDisplay:10.37,2013-07-19 13:31:00,
2013-07-19 09:36:00,80.4,78.2,30.10,ESE,123,0.2,1.2,93,0.00,CLR,,0.01,WeatherDisplay:10.37,2013-07-19 13:36:00,
2013-07-19 09:41:00,80.8,78.3,30.10,ESE,104,1.5,3.5,92,0.00,CLR,,0.01,WeatherDisplay:10.37,2013-07-19 13:41:00,
2013-07-19 09:46:00,81.1,77.9,30.10,East,92,5.8,6.9,90,0.00,CLR,,0.01,WeatherDisplay:10.37,2013-07-19 13:46:00,
2013-07-19 09:51:00,81.3,77.7,30.10,SE,125,3.7,4.6,89,0.00,CLR,,0.01,WeatherDisplay:10.37,2013-07-19 13:51:00,
2013-07-19 09:56:00,81.4,77.8,30.11,ESE,105,2.5,4.6,89,0.00,CLR,,0.01,WeatherDisplay:10.37,2013-07-19 13:56:00,
2013-07-19 10:01:00,81.4,77.5,30.10,ESE,113,4.5,8.1,88,0.00,CLR,,0.01,WeatherDisplay:10.37,2013-07-19 14:01:00,
2013-07-19 10:06:00,81.5,77.3,30.11,ESE,111,6.0,8.1,87,0.00,CLR,,0.01,WeatherDisplay:10.37,2013-07-19 14:06:00,
2013-07-19 10:11:00,81.5,77.3,30.11,ESE,113,6.1,6.9,87,0.00,CLR,,0.01,WeatherDisplay:10.37,2013-07-19 14:11:00,
2013-07-19 10:16:00,81.5,77.3,30.11,SE,126,4.1,5.8,87,0.00,CLR,,0.01,WeatherDisplay:10.37,2013-07-19 14:16:00,
2013-07-19 10:21:00,81.6,77.0,30.11,SE,126,3.9,4.6,86,0.00,CLR,,0.01,WeatherDisplay:10.37,2013-07-19 14:21:00,
2013-07-19 10:26:00,81.7,77.1,30.11,ESE,111,5.0,8.1,86,0.00,CLR,,0.01,WeatherDisplay:10.37,2013-07-19 14:26:00,
2013-07-19 10:31:00,81.8,77.2,30.11,ESE,117,4.6,4.6,86,0.00,CLR,,0.01,WeatherDisplay:10.37,2013-07-19 14:31:00,
2013-07-19 10:36:00,82.0,77.0,30.11,SSE,150,4.7,6.9,85,0.00,CLR,,0.01,WeatherDisplay:10.37,2013-07-19 14:36:00,
2013-07-19 10:41:00,82.2,77.2,30.11,ESE,109,5.0,6.9,85,0.00,CLR,,0.01,WeatherDisplay:10.37,2013-07-19 14:41:00,
2013-07-19 10:46:00,82.4,77.4,30.11,ESE,113,8.3,9.2,85,0.00,CLR,,0.01,WeatherDisplay:10.37,2013-07-19 14:46:00,
2013-07-19 10:51:00,82.7,77.7,30.12,ESE,121,6.6,10.4,85,0.00,CLR,,0.01,WeatherDisplay:10.37,2013-07-19 14:51:00,
2013-07-19 10:56:00,83.0,78.0,30.12,SE,141,4.0,6.9,85,0.00,CLR,,0.01,WeatherDisplay:10.37,2013-07-19 14:56:00,
2013-07-19 11:01:00,83.1,77.8,30.12,SE,130,7.9,11.5,84,0.00,CLR,,0.01,WeatherDisplay:10.37,2013-07-19 15:01:00,
2013-07-19 11:06:00,83.1,77.8,30.12,ESE,117,6.8,8.1,84,0.00,CLR,,0.01,WeatherDisplay:10.37,2013-07-19 15:06:00,
2013-07-19 11:11:00,83.1,77.8,30.12,ESE,102,4.8,6.9,84,0.00,CLR,,0.01,WeatherDisplay:10.37,2013-07-19 15:11:00,
2013-07-19 11:16:00,83.1,77.4,30.11,ESE,120,5.2,10.4,83,0.00,CLR,,0.01,WeatherDisplay:10.37,2013-07-19 15:16:00,
2013-07-19 11:21:00,83.1,77.4,30.11,East,86,5.3,6.9,83,0.00,CLR,,0.01,WeatherDisplay:10.37,2013-07-19 15:21:00,
2013-07-19 11:26:00,83.0,77.3,30.11,East,81,3.0,3.5,83,0.00,CLR,,0.01,WeatherDisplay:10.37,2013-07-19 15:26:00,
2013-07-19 11:31:00,83.1,77.4,30.12,ESE,102,5.4,8.1,83,0.00,CLR,,0.01,WeatherDisplay:10.37,2013-07-19 15:31:00,
2013-07-19 11:36:00,83.4,77.7,30.12,ESE,113,5.9,9.2,83,0.00,CLR,,0.01,WeatherDisplay:10.37,2013-07-19 15:36:00,
2013-07-19 11:41:00,83.6,77.9,30.12,SE,130,4.1,6.9,83,0.00,CLR,,0.01,WeatherDisplay:10.37,2013-07-19 15:41:00,
2013-07-19 11:46:00,83.9,78.2,30.12,East,95,5.2,8.1,83,0.00,CLR,,0.01,WeatherDisplay:10.37,2013-07-19 15:46:00,
2013-07-19 11:51:00,84.2,78.1,30.12,ESE,123,4.5,12.0,82,0.00,CLR,,0.01,WeatherDisplay:10.37,2013-07-19 15:51:00,
2013-07-19 11:56:00,84.4,78.3,30.11,East,83,4.9,4.9,82,0.00,CLR,,0.01,WeatherDisplay:10.37,2013-07-19 15:56:00,
2013-07-19 12:01:00,84.4,76.8,30.11,ESE,123,7.9,11.5,78,0.00,CLR,,0.01,WeatherDisplay:10.37,2013-07-19 16:01:00,
2013-07-19 12:06:00,84.4,76.4,30.11,ESE,116,6.8,10.4,77,0.00,CLR,,0.01,WeatherDisplay:10.37,2013-07-19 16:06:00,
2013-07-19 12:11:00,84.6,77.4,30.11,SSE,150,4.5,10.0,79,0.00,CLR,,0.01,WeatherDisplay:10.37,2013-07-19 16:11:00,
2013-07-19 12:16:00,84.7,77.8,30.11,ESE,122,4.5,4.6,80,0.00,CLR,,0.01,WeatherDisplay:10.37,2013-07-19 16:16:00,
2013-07-19 12:21:00,84.9,77.3,30.10,ENE,76,6.7,11.5,78,0.00,CLR,,0.01,WeatherDisplay:10.37,2013-07-19 16:21:00,
2013-07-19 12:26:00,85.0,77.4,30.10,East,99,7.0,10.4,78,0.00,CLR,,0.01,WeatherDisplay:10.37,2013-07-19 16:26:00,
2013-07-19 12:31:00,85.2,77.2,30.10,SSE,150,5.5,8.0,77,0.00,CLR,,0.01,WeatherDisplay:10.37,2013-07-19 16:31:00,
2013-07-19 12:36:00,85.4,77.4,30.10,SE,130,5.6,6.9,77,0.00,CLR,,0.01,WeatherDisplay:10.37,2013-07-19 16:36:00,
2013-07-19 12:41:00,85.3,76.9,30.10,East,98,4.3,6.9,76,0.00,CLR,,0.01,WeatherDisplay:10.37,2013-07-19 16:41:00,
2013-07-19 12:46:00,85.3,76.1,30.10,ESE,113,8.0,8.1,74,0.00,CLR,,0.01,WeatherDisplay:10.37,2013-07-19 16:46:00,
2013-07-19 12:51:00,85.2,75.6,30.10,SE,140,8.6,13.8,73,0.00,CLR,,0.01,WeatherDisplay:10.37,2013-07-19 16:51:00,
2013-07-19 12:56:00,85.0,75.0,30.10,ESE,113,6.9,8.1,72,0.00,CLR,,0.01,WeatherDisplay:10.37,2013-07-19 16:56:00,
2013-07-19 13:01:00,84.8,75.6,30.10,ESE,118,6.9,8.1,74,0.00,CLR,,0.01,WeatherDisplay:10.37,2013-07-19 17:01:00,
2013-07-19 13:06:00,85.2,75.6,30.10,SSE,150,8.1,11.5,73,0.00,CLR,,0.01,WeatherDisplay:10.37,2013-07-19 17:06:00,
2013-07-19 13:11:00,85.3,76.1,30.10,SE,135,4.5,11.0,74,0.00,CLR,,0.01,WeatherDisplay:10.37,2013-07-19 17:11:00,
2013-07-19 13:16:00,85.4,75.8,30.09,ESE,108,7.0,10.4,73,0.00,CLR,,0.01,WeatherDisplay:10.37,2013-07-19 17:16:00,
2013-07-19 13:21:00,85.6,76.4,30.09,SE,136,5.1,6.9,74,0.00,CLR,,0.01,WeatherDisplay:10.37,2013-07-19 17:21:00,
2013-07-19 13:26:00,85.8,76.1,30.09,East,90,7.0,7.0,73,0.00,CLR,,0.01,WeatherDisplay:10.37,2013-07-19 17:26:00,
2013-07-19 13:31:00,85.9,76.6,30.09,SE,144,6.9,6.9,74,0.00,CLR,,0.01,WeatherDisplay:10.37,2013-07-19 17:31:00,
2013-07-19 13:36:00,85.9,76.2,30.08,ENE,60,8.4,12.7,73,0.00,CLR,,0.01,WeatherDisplay:10.37,2013-07-19 17:36:00,
2013-07-19 13:41:00,85.8,76.5,30.08,ENE,76,2.4,4.6,74,0.00,CLR,,0.01,WeatherDisplay:10.37,2013-07-19 17:41:00,
2013-07-19 13:46:00,85.5,75.9,30.08,ESE,110,6.2,11.5,73,0.00,CLR,,0.01,WeatherDisplay:10.37,2013-07-19 17:46:00,
2013-07-19 13:52:00,85.4,75.8,30.08,ESE,107,7.3,8.0,73,0.00,CLR,,0.01,WeatherDisplay:10.37,2013-07-19 17:52:00,
2013-07-19 13:57:00,85.0,75.0,30.08,ESE,107,5.6,10.4,72,0.00,CLR,,0.01,WeatherDisplay:10.37,2013-07-19 17:57:00,
2013-07-19 14:02:00,84.9,75.3,30.07,SE,126,6.8,10.4,73,0.00,CLR,,0.01,WeatherDisplay:10.37,2013-07-19 18:02:00,
2013-07-19 14:07:00,84.9,76.1,30.08,SE,138,6.4,9.2,75,0.00,CLR,,0.01,WeatherDisplay:10.37,2013-07-19 18:07:00,
2013-07-19 14:12:00,85.0,75.8,30.08,ESE,103,6.5,8.1,74,0.00,CLR,,0.01,WeatherDisplay:10.37,2013-07-19 18:12:00,
2013-07-19 14:17:00,85.1,75.5,30.08,ESE,122,9.0,11.5,73,0.00,CLR,,0.01,WeatherDisplay:10.37,2013-07-19 18:17:00,
2013-07-19 14:22:00,85.4,76.6,30.07,SE,128,6.1,6.9,75,0.00,CLR,,0.01,WeatherDisplay:10.37,2013-07-19 18:22:00,
2013-07-19 14:27:00,85.7,76.9,30.07,ESE,111,6.6,11.5,75,0.00,CLR,,0.01,WeatherDisplay:10.37,2013-07-19 18:27:00,
2013-07-19 14:32:00,85.9,76.6,30.07,SE,136,4.7,8.1,74,0.00,CLR,,0.01,WeatherDisplay:10.37,2013-07-19 18:32:00,
2013-07-19 14:37:00,85.7,76.5,30.07,ESE,122,5.0,5.8,74,0.00,CLR,,0.01,WeatherDisplay:10.37,2013-07-19 18:37:00,
2013-07-19 14:42:00,85.5,76.7,30.07,East,94,7.2,11.5,75,0.00,CLR,,0.01,WeatherDisplay:10.37,2013-07-19 18:42:00,
2013-07-19 14:47:00,85.6,76.4,30.07,ESE,117,6.5,8.1,74,0.00,CLR,,0.01,WeatherDisplay:10.37,2013-07-19 18:47:00,
2013-07-19 14:52:00,85.7,76.5,30.06,ESE,117,6.7,10.4,74,0.00,CLR,,0.01,WeatherDisplay:10.37,2013-07-19 18:52:00,
2013-07-19 14:57:00,85.9,76.6,30.06,ESE,105,10.1,12.7,74,0.00,CLR,,0.01,WeatherDisplay:10.37,2013-07-19 18:57:00,
2013-07-19 15:02:00,85.6,76.8,30.06,SE,128,7.0,11.5,75,0.00,CLR,,0.01,WeatherDisplay:10.37,2013-07-19 19:02:00,
2013-07-19 15:07:00,85.3,76.9,30.06,East,80,6.3,8.1,76,0.00,CLR,,0.01,WeatherDisplay:10.37,2013-07-19 19:07:00,
2013-07-19 15:12:00,85.2,76.4,30.07,ESE,113,7.0,9.2,75,0.00,CLR,,0.01,WeatherDisplay:10.37,2013-07-19 19:12:00,
2013-07-19 15:17:00,85.2,76.8,30.06,ESE,105,8.0,10.4,76,0.00,CLR,,0.01,WeatherDisplay:10.37,2013-07-19 19:17:00,
2013-07-19 15:22:00,85.1,76.3,30.06,SSE,152,5.6,9.2,75,0.00,CLR,,0.01,WeatherDisplay:10.37,2013-07-19 19:22:00,
2013-07-19 15:27:00,85.0,77.0,30.06,East,89,2.9,6.9,77,0.00,CLR,,0.01,WeatherDisplay:10.37,2013-07-19 19:27:00,
2013-07-19 15:32:00,84.8,76.8,30.06,East,91,5.9,12.7,77,0.00,CLR,,0.01,WeatherDisplay:10.37,2013-07-19 19:32:00,
2013-07-19 15:37:00,84.7,76.7,30.06,SE,145,4.9,9.2,77,0.00,CLR,,0.01,WeatherDisplay:10.37,2013-07-19 19:37:00,
2013-07-19 15:42:00,84.7,77.1,30.06,East,86,2.6,9.2,78,0.00,CLR,,0.01,WeatherDisplay:10.37,2013-07-19 19:42:00,
2013-07-19 15:47:00,84.5,76.5,30.05,ENE,78,9.1,11.5,77,0.00,CLR,,0.01,WeatherDisplay:10.37,2013-07-19 19:47:00,
2013-07-19 15:52:00,84.4,76.8,30.05,SE,128,9.1,15.0,78,0.00,CLR,,0.01,WeatherDisplay:10.37,2013-07-19 19:52:00,
2013-07-19 15:57:00,84.3,76.7,30.05,SE,138,4.0,4.6,78,0.00,CLR,,0.01,WeatherDisplay:10.37,2013-07-19 19:57:00,
2013-07-19 16:02:00,84.3,76.3,30.05,SSE,163,6.3,10.4,77,0.00,CLR,,0.01,WeatherDisplay:10.37,2013-07-19 20:02:00,
2013-07-19 16:07:00,84.3,76.7,30.05,ESE,102,9.3,13.8,78,0.00,CLR,,0.01,WeatherDisplay:10.37,2013-07-19 20:07:00,
2013-07-19 16:12:00,84.3,76.7,30.05,ESE,102,7.7,11.5,78,0.00,CLR,,0.01,WeatherDisplay:10.37,2013-07-19 20:12:00,
2013-07-19 16:17:00,84.1,76.9,30.05,ESE,117,5.8,8.1,79,0.00,CLR,,0.01,WeatherDisplay:10.37,2013-07-19 20:17:00,
2013-07-19 16:22:00,84.0,76.8,30.05,SE,133,7.8,10.4,79,0.00,CLR,,0.01,WeatherDisplay:10.37,2013-07-19 20:22:00,
2013-07-19 16:27:00,84.0,76.4,30.05,SE,136,5.1,10.4,78,0.00,CLR,,0.01,WeatherDisplay:10.37,2013-07-19 20:27:00,
2013-07-19 16:32:00,84.0,76.8,30.05,SSE,150,5.4,6.9,79,0.00,CLR,,0.01,WeatherDisplay:10.37,2013-07-19 20:32:00,
2013-07-19 16:37:00,84.1,76.9,30.05,SSE,151,5.0,10.4,79,0.00,CLR,,0.01,WeatherDisplay:10.37,2013-07-19 20:37:00,
2013-07-19 16:42:00,84.1,76.9,30.05,SSE,149,7.0,10.0,79,0.00,CLR,,0.01,WeatherDisplay:10.37,2013-07-19 20:42:00,
2013-07-19 16:47:00,84.0,76.8,30.05,East,94,7.7,10.4,79,0.00,CLR,,0.01,WeatherDisplay:10.37,2013-07-19 20:47:00,
2013-07-19 16:52:00,83.8,76.6,30.05,SE,131,6.0,11.5,79,0.00,CLR,,0.01,WeatherDisplay:10.37,2013-07-19 20:52:00,
2013-07-19 16:57:00,83.9,76.7,30.05,ESE,107,6.1,9.2,79,0.00,CLR,,0.01,WeatherDisplay:10.37,2013-07-19 20:57:00,
2013-07-19 17:02:00,84.0,76.8,30.05,SE,134,6.4,9.2,79,0.00,CLR,,0.01,WeatherDisplay:10.37,2013-07-19 21:02:00,
2013-07-19 17:07:00,84.1,77.3,30.05,ESE,116,2.5,4.6,80,0.00,CLR,,0.01,WeatherDisplay:10.37,2013-07-19 21:07:00,
2013-07-19 17:12:00,84.1,76.9,30.05,ESE,123,1.9,4.6,79,0.00,CLR,,0.01,WeatherDisplay:10.37,2013-07-19 21:12:00,
2013-07-19 17:17:00,84.1,77.3,30.05,South,169,2.2,3.5,80,0.00,CLR,,0.01,WeatherDisplay:10.37,2013-07-19 21:17:00,
2013-07-19 17:22:00,84.0,76.8,30.04,SE,125,2.3,5.8,79,0.00,CLR,,0.01,WeatherDisplay:10.37,2013-07-19 21:22:00,
2013-07-19 17:27:00,83.9,76.7,30.04,SE,137,5.2,8.1,79,0.00,CLR,,0.01,WeatherDisplay:10.37,2013-07-19 21:27:00,
2013-07-19 17:32:00,83.9,77.1,30.04,ESE,108,3.0,3.5,80,0.00,CLR,,0.01,WeatherDisplay:10.37,2013-07-19 21:32:00,
2013-07-19 17:37:00,83.8,77.0,30.04,SE,128,3.2,4.6,80,0.00,CLR,,0.01,WeatherDisplay:10.37,2013-07-19 21:37:00,
2013-07-19 17:42:00,83.7,76.9,30.04,East,96,5.7,8.1,80,0.00,CLR,,0.01,WeatherDisplay:10.37,2013-07-19 21:42:00,
2013-07-19 17:47:00,83.6,76.8,30.04,East,88,5.1,9.2,80,0.00,CLR,,0.01,WeatherDisplay:10.37,2013-07-19 21:47:00,
2013-07-19 17:52:00,83.6,76.8,30.04,SE,142,3.2,5.8,80,0.00,CLR,,0.01,WeatherDisplay:10.37,2013-07-19 21:52:00,
2013-07-19 17:57:00,83.6,77.1,30.04,ENE,78,4.2,8.1,81,0.00,CLR,,0.01,WeatherDisplay:10.37,2013-07-19 21:57:00,
2013-07-19 18:02:00,83.7,77.2,30.04,ESE,117,3.9,8.0,81,0.00,CLR,,0.01,WeatherDisplay:10.37,2013-07-19 22:02:00,
2013-07-19 18:07:00,83.8,77.3,30.04,ESE,106,2.8,6.9,81,0.00,CLR,,0.01,WeatherDisplay:10.37,2013-07-19 22:07:00,
2013-07-19 18:12:00,83.8,77.3,30.04,ESE,111,4.9,4.9,81,0.00,CLR,,0.01,WeatherDisplay:10.37,2013-07-19 22:12:00,
2013-07-19 18:17:00,83.7,77.2,30.04,SE,136,7.3,8.1,81,0.00,CLR,,0.01,WeatherDisplay:10.37,2013-07-19 22:17:00,
2013-07-19 18:22:00,83.7,77.2,30.04,SE,131,5.4,5.4,81,0.00,CLR,,0.01,WeatherDisplay:10.37,2013-07-19 22:22:00,
2013-07-19 18:27:00,83.6,77.1,30.04,East,101,7.4,10.4,81,0.00,CLR,,0.01,WeatherDisplay:10.37,2013-07-19 22:27:00,
2013-07-19 18:32:00,83.6,77.5,30.04,ESE,119,6.3,6.9,82,0.00,CLR,,0.01,WeatherDisplay:10.37,2013-07-19 22:32:00,
2013-07-19 18:37:00,83.7,77.6,30.03,SE,129,3.3,4.6,82,0.00,CLR,,0.01,WeatherDisplay:10.37,2013-07-19 22:37:00,
2013-07-19 18:42:00,83.9,77.8,30.03,ENE,69,5.5,8.1,82,0.00,CLR,,0.01,WeatherDisplay:10.37,2013-07-19 22:42:00,
2013-07-19 18:47:00,83.8,77.7,30.03,SE,131,3.5,6.9,82,0.00,CLR,,0.01,WeatherDisplay:10.37,2013-07-19 22:47:00,
2013-07-19 18:53:00,83.7,77.2,30.03,NE,55,3.0,8.1,81,0.00,CLR,,0.01,WeatherDisplay:10.37,2013-07-19 22:53:00,
2013-07-19 18:58:00,83.6,77.1,30.04,SE,126,6.4,9.2,81,0.00,CLR,,0.01,WeatherDisplay:10.37,2013-07-19 22:58:00,
2013-07-19 19:03:00,83.5,77.4,30.04,East,98,2.8,5.8,82,0.00,CLR,,0.01,WeatherDisplay:10.37,2013-07-19 23:03:00,
2013-07-19 19:08:00,83.4,77.3,30.04,ESE,115,0.8,4.0,82,0.00,CLR,,0.01,WeatherDisplay:10.37,2013-07-19 23:08:00,
2013-07-19 19:13:00,83.3,77.2,30.04,East,98,2.6,3.5,82,0.00,CLR,,0.01,WeatherDisplay:10.37,2013-07-19 23:13:00,
2013-07-19 19:18:00,83.2,77.5,30.04,East,84,2.2,4.6,83,0.00,CLR,,0.01,WeatherDisplay:10.37,2013-07-19 23:18:00,
2013-07-19 19:23:00,83.2,77.5,30.05,ESE,113,2.9,8.1,83,0.00,CLR,,0.01,WeatherDisplay:10.37,2013-07-19 23:23:00,
2013-07-19 19:28:00,83.0,77.3,30.05,ESE,110,3.3,4.6,83,0.00,CLR,,0.01,WeatherDisplay:10.37,2013-07-19 23:28:00,
2013-07-19 19:33:00,82.8,77.1,30.05,ESE,122,4.7,4.7,83,0.00,CLR,,0.01,WeatherDisplay:10.37,2013-07-19 23:33:00,
2013-07-19 19:38:00,82.7,77.0,30.05,SE,125,1.2,3.5,83,0.00,CLR,,0.01,WeatherDisplay:10.37,2013-07-19 23:38:00,
2013-07-19 19:43:00,82.5,77.2,30.05,East,87,2.6,6.9,84,0.00,CLR,,0.01,WeatherDisplay:10.37,2013-07-19 23:43:00,
2013-07-19 19:48:00,82.3,77.0,30.05,SE,129,1.8,4.6,84,0.00,CLR,,0.01,WeatherDisplay:10.37,2013-07-19 23:48:00,
2013-07-19 19:53:00,82.2,76.9,30.05,East,93,2.4,4.6,84,0.00,CLR,,0.01,WeatherDisplay:10.37,2013-07-19 23:53:00,
2013-07-19 19:58:00,82.2,77.2,30.05,ESE,107,2.6,4.6,85,0.00,CLR,,0.01,WeatherDisplay:10.37,2013-07-19 23:58:00,
2013-07-19 20:03:00,82.1,77.1,30.06,ESE,107,0.8,2.3,85,0.00,CLR,,0.01,WeatherDisplay:10.37,2013-07-20 00:03:00,
2013-07-19 20:08:00,82.0,77.0,30.06,ESE,106,2.9,3.5,85,0.00,CLR,,0.01,WeatherDisplay:10.37,2013-07-20 00:08:00,
2013-07-19 20:13:00,81.9,77.3,30.06,ENE,74,2.2,3.5,86,0.00,CLR,,0.01,WeatherDisplay:10.37,2013-07-20 00:13:00,
2013-07-19 20:18:00,81.8,77.2,30.05,East,91,1.2,3.5,86,0.00,CLR,,0.01,WeatherDisplay:10.37,2013-07-20 00:18:00,
2013-07-19 20:23:00,81.7,77.5,30.05,East,87,1.2,3.5,87,0.00,CLR,,0.01,WeatherDisplay:10.37,2013-07-20 00:23:00,
2013-07-19 20:28:00,81.6,77.4,30.06,East,87,1.6,3.5,87,0.00,CLR,,0.01,WeatherDisplay:10.37,2013-07-20 00:28:00,
2013-07-19 20:33:00,81.5,77.3,30.06,SE,140,3.4,5.8,87,0.00,CLR,,0.01,WeatherDisplay:10.37,2013-07-20 00:33:00,
2013-07-19 20:38:00,81.5,77.3,30.06,ESE,123,1.0,2.3,87,0.00,CLR,,0.01,WeatherDisplay:10.37,2013-07-20 00:38:00,
2013-07-19 20:43:00,81.4,77.2,30.07,ESE,110,0.6,2.3,87,0.00,CLR,,0.01,WeatherDisplay:10.37,2013-07-20 00:43:00,
2013-07-19 20:48:00,81.4,77.2,30.07,ESE,110,1.1,2.3,87,0.00,CLR,,0.01,WeatherDisplay:10.37,2013-07-20 00:48:00,
2013-07-19 20:53:00,81.4,77.2,30.07,ESE,110,0.0,0.0,87,0.00,CLR,,0.01,WeatherDisplay:10.37,2013-07-20 00:53:00,
2013-07-19 20:58:00,81.3,77.4,30.08,ESE,108,2.0,3.5,88,0.00,CLR,,0.01,WeatherDisplay:10.37,2013-07-20 00:58:00,
2013-07-19 21:03:00,81.2,77.3,30.08,ESE,109,0.2,1.2,88,0.00,CLR,,0.01,WeatherDisplay:10.37,2013-07-20 01:03:00,
2013-07-19 21:08:00,81.1,77.2,30.08,ESE,109,0.1,2.3,88,0.00,CLR,,0.01,WeatherDisplay:10.37,2013-07-20 01:08:00,
2013-07-19 21:13:00,81.1,77.2,30.08,ESE,109,0.0,0.0,88,0.00,CLR,,0.01,WeatherDisplay:10.37,2013-07-20 01:13:00,
2013-07-19 21:18:00,81.1,77.5,30.08,ESE,109,0.0,0.0,89,0.00,CLR,,0.01,WeatherDisplay:10.37,2013-07-20 01:18:00,
2013-07-19 21:23:00,81.0,77.4,30.08,ESE,109,0.0,1.2,89,0.00,CLR,,0.01,WeatherDisplay:10.37,2013-07-20 01:23:00,
2013-07-19 21:28:00,80.8,77.3,30.08,ESE,109,0.6,1.2,89,0.00,CLR,,0.01,WeatherDisplay:10.37,2013-07-20 01:28:00,
2013-07-19 21:33:00,80.7,77.2,30.09,ESE,109,0.0,1.2,89,0.00,CLR,,0.01,WeatherDisplay:10.37,2013-07-20 01:33:00,
2013-07-19 21:38:00,80.7,77.5,30.09,ESE,109,1.8,3.5,90,0.00,CLR,,0.01,WeatherDisplay:10.37,2013-07-20 01:38:00,
2013-07-19 21:43:00,80.7,77.5,30.09,ESE,109,0.7,2.3,90,0.00,CLR,,0.01,WeatherDisplay:10.37,2013-07-20 01:43:00,
2013-07-19 21:48:00,80.7,77.5,30.09,ESE,109,0.6,3.5,90,0.00,CLR,,0.01,WeatherDisplay:10.37,2013-07-20 01:48:00,
2013-07-19 21:54:00,80.7,77.5,30.09,ESE,109,0.0,0.0,90,0.00,CLR,,0.01,WeatherDisplay:10.37,2013-07-20 01:54:00,
2013-07-19 21:59:00,80.8,77.6,30.10,ESE,109,0.1,1.2,90,0.00,CLR,,0.01,WeatherDisplay:10.37,2013-07-20 01:59:00,
2013-07-19 22:04:00,80.7,77.5,30.10,ESE,109,0.1,1.2,90,0.00,CLR,,0.01,WeatherDisplay:10.37,2013-07-20 02:04:00,
2013-07-19 22:09:00,80.7,77.8,30.10,ESE,109,0.4,2.3,91,0.00,CLR,,0.01,WeatherDisplay:10.37,2013-07-20 02:09:00,
2013-07-19 22:14:00,80.7,77.5,30.11,ESE,109,0.0,0.0,90,0.00,CLR,,0.01,WeatherDisplay:10.37,2013-07-20 02:14:00,
2013-07-19 22:19:00,80.7,77.8,30.11,ESE,109,0.0,0.0,91,0.00,CLR,,0.01,WeatherDisplay:10.37,2013-07-20 02:19:00,
2013-07-19 22:24:00,80.6,77.7,30.11,ESE,109,0.2,0.0,91,0.00,CLR,,0.01,WeatherDisplay:10.37,2013-07-20 02:24:00,
2013-07-19 22:29:00,80.6,77.7,30.10,ESE,109,0.6,1.2,91,0.00,CLR,,0.01,WeatherDisplay:10.37,2013-07-20 02:29:00,
2013-07-19 22:34:00,80.6,77.7,30.10,ESE,109,0.8,1.2,91,0.00,CLR,,0.01,WeatherDisplay:10.37,2013-07-20 02:34:00,
2013-07-19 22:39:00,80.6,77.7,30.11,ESE,109,2.6,3.5,91,0.00,CLR,,0.01,WeatherDisplay:10.37,2013-07-20 02:39:00,
2013-07-19 22:44:00,80.7,77.8,30.11,ESE,109,0.0,1.2,91,0.00,CLR,,0.01,WeatherDisplay:10.37,2013-07-20 02:44:00,
2013-07-19 22:49:00,80.8,77.9,30.11,ESE,109,0.2,0.0,91,0.00,CLR,,0.01,WeatherDisplay:10.37,2013-07-20 02:49:00,
2013-07-19 22:54:00,80.8,77.9,30.11,ESE,109,0.4,1.2,91,0.00,CLR,,0.01,WeatherDisplay:10.37,2013-07-20 02:54:00,
2013-07-19 22:59:00,80.7,77.8,30.11,ESE,109,0.0,0.0,91,0.00,CLR,,0.01,WeatherDisplay:10.37,2013-07-20 02:59:00,
2013-07-19 23:04:00,80.8,77.9,30.11,ESE,109,0.3,1.0,91,0.00,CLR,,0.01,WeatherDisplay:10.37,2013-07-20 03:04:00,
2013-07-19 23:09:00,80.6,77.7,30.12,ESE,109,0.0,1.2,91,0.00,CLR,,0.01,WeatherDisplay:10.37,2013-07-20 03:09:00,
2013-07-19 23:14:00,80.5,77.6,30.12,ESE,109,0.0,0.0,91,0.00,CLR,,0.01,WeatherDisplay:10.37,2013-07-20 03:14:00,
2013-07-19 23:19:00,80.6,77.7,30.12,ESE,109,0.0,0.0,91,0.00,CLR,,0.01,WeatherDisplay:10.37,2013-07-20 03:19:00,
2013-07-19 23:24:00,80.7,78.2,30.11,ESE,109,0.0,0.0,92,0.00,CLR,,0.01,WeatherDisplay:10.37,2013-07-20 03:24:00,
2013-07-19 23:29:00,80.6,78.1,30.11,ESE,109,0.2,1.2,92,0.00,CLR,,0.01,WeatherDisplay:10.37,2013-07-20 03:29:00,
2013-07-19 23:34:00,80.6,78.1,30.11,ESE,109,0.1,1.2,92,0.00,CLR,,0.01,WeatherDisplay:10.37,2013-07-20 03:34:00,
2013-07-19 23:39:00,80.6,78.1,30.11,ESE,109,0.0,0.0,92,0.00,CLR,,0.01,WeatherDisplay:10.37,2013-07-20 03:39:00,
2013-07-19 23:44:00,80.5,77.6,30.11,ESE,109,0.0,1.2,91,0.00,CLR,,0.01,WeatherDisplay:10.37,2013-07-20 03:44:00,
2013-07-19 23:49:00,80.5,78.0,30.11,ESE,109,0.3,1.2,92,0.00,CLR,,0.01,WeatherDisplay:10.37,2013-07-20 03:49:00,
2013-07-19 23:54:00,80.5,78.0,30.11,ESE,109,0.0,0.0,92,0.00,CLR,,0.01,WeatherDisplay:10.37,2013-07-20 03:54:00,
2013-07-19 23:59:00,80.4,77.5,30.11,ESE,109,0.6,1.2,91,0.00,CLR,,0.01,WeatherDisplay:10.37,2013-07-20 03:59:00,